Regional Weather Roundup
Issued by NWS

Home | Current Version | Previous Version | Text Only | Print | Product List | Glossary Off
Versions: 1 2 3 4 5 6 7 8 9 10 11 12 13 14 15 16 17 18 19 20 21 22 23 24 25 26 27 28 29 30 31 32 33 34 35 36 37 38 39 40 41 42 43 44 45 46 47 48 49 50

000
ASUS43 KIND 102059
RWRIN

WEATHER ROUNDUP FOR INDIANA
NATIONAL WEATHER SERVICE INDIANAPOLIS IN
400 PM EST SAT DEC 10 2016

NOTE: "FAIR" INDICATES FEW OR NO CLOUDS BELOW 12,000 FEET WITH NO
SIGNIFICANT WEATHER AND/OR OBSTRUCTIONS TO VISIBILITY.

* - STATION DOES NOT REPORT WEATHER SUCH AS PRECIPITATION OR FOG.

+ - STATION NOT QUALITY CONTROLLED BY THE NATIONAL WEATHER SERVICE.
    USE DATA WITH CAUTION...ESPECIALLY DEWPOINT AND RELATIVE
    HUMIDITY OBSERVATIONS.

INZ001>003-010>013-019-020-102200-
NORTHWEST INDIANA

CITY           SKY/WX    TMP DP  RH WIND       PRES   REMARKS
GARY /AIRPORT/ CLOUDY    27  14  59 SW5       30.44F WCI  21

$$

LMZ046-743>745-102200-
SOUTHERN LAKE MICHIGAN

STATION/POSITION TIME  TEMP    WIND        PRES    WAVE
                       AIR SEA DIR/SP/G            HT
                 (UTC) (F)     (DEG/KT/KT) (MB)    (FT)

$$

INZ004-005-014>016-021>024-102200-
NORTH CENTRAL INDIANA

CITY           SKY/WX    TMP DP  RH WIND       PRES   REMARKS
ELKHART        CLOUDY    25  12  58 W8        30.42F WCI  16
GOSHEN         CLOUDY    25  12  58 W6        30.43F WCI  18
SOUTH BEND     CLOUDY    23  13  65 SW7       30.43F WCI  15

$$

INZ006>009-017-018-025>027-102200-
NORTHEAST INDIANA

CITY           SKY/WX    TMP DP  RH WIND       PRES   REMARKS
ANGOLA *+      CLOUDY    25  16  68 W9        30.41S WCI  15
FORT WAYNE     CLOUDY    26  13  57 W10       30.46S WCI  16
KENDALLVILLE + CLOUDY    25  14  62 W9        30.43S WCI  15

$$

INZ028-029-035-036-043>045-051>053-102200-
WEST CENTRAL INDIANA

CITY           SKY/WX    TMP DP  RH WIND       PRES   REMARKS
CRAWFORDSVL +  PTSUNNY   26  17  67 S5        30.45S WCI  20
GREENCASTLE +  CLOUDY    28  19  69 S6        30.46S WCI  22
LAFAYETTE      CLOUDY    27  15  61 SW7       30.45F WCI  19
TERRE HAUTE    CLOUDY    28  16  60 S7        30.46F WCI  21

$$

INZ030>032-037>040-046>048-054>057-064-065-102200-
CENTRAL INDIANA

CITY           SKY/WX    TMP DP  RH WIND       PRES   REMARKS
ANDERSON       PTSUNNY   27  14  59 SW6       30.45F WCI  20
COLUMBUS       MOSUNNY   28  18  64 CALM      30.48F
GREENWOOD *+   CLOUDY    30  18  61 SW3       30.46S
INDIANAPOLIS   CLOUDY    28  15  58 W5        30.44F WCI  23
-EAGLE CREEK   CLOUDY    29  15  56 CALM      30.45F
KOKOMO +       CLOUDY    27  16  63 W6        30.45F WCI  20
SHELBYVILLE    CLOUDY    30  16  56 W5        30.45F WCI  25

$$

INZ033-034-041-042-049-050-058-059-102200-
EAST CENTRAL INDIANA

CITY           SKY/WX    TMP DP  RH WIND       PRES   REMARKS
MUNCIE         MOSUNNY   28  15  58 VRB3      30.45S

$$

INZ060-061-067>069-081>083-085>088-102200-
SOUTHWEST INDIANA

CITY           SKY/WX    TMP DP  RH WIND       PRES   REMARKS
EVANSVILLE     CLOUDY    34  15  46 S3        30.49F
HUNTINGBURG *+ MOSUNNY   32  16  51 S3        30.49S

$$

INZ062-063-066-070>080-084-089>092-102200-
SOUTH CENTRAL AND SOUTHEAST INDIANA

CITY           SKY/WX    TMP DP  RH WIND       PRES   REMARKS
BLOOMINGTON    CLOUDY    28  15  58 S5        30.45F WCI  23
MADISON *+     CLOUDY    32  14  47 S3        30.49F
SEYMOUR +      PTSUNNY   32  18  55 S3        30.49S

$$




USA.gov is the U.S. government's official web portal to all federal, state and local government web resources and services.